Regional Weather Roundup
Issued by NWS

Home | Current Version | Previous Version | Text Only | Print | Product List | Glossary On
Versions: 1 2 3 4 5 6 7 8 9 10 11 12 13 14 15 16 17 18 19 20 21 22 23 24 25 26 27 28 29 30 31 32 33 34 35 36 37 38 39 40 41 42 43 44 45 46 47 48 49 50
000
ASUS43 KLSX 171607
RWRMO

WEATHER SUMMARY FOR MISSOURI
NATIONAL WEATHER SERVICE SPRINGFIELD MO
1000 AM CST SAT FEB 17 2018

NOTE: "FAIR" INDICATES FEW OR NO CLOUDS BELOW 12,000 FEET WITH NO
       SIGNIFICANT WEATHER AND/OR OBSTRUCTIONS TO VISIBILITY.
       CURRENT SKY AND/OR WEATHER CONDITIONS ARE NOT AVAILABLE FOR
       CHILLICOTHE AND FARMINGTON.

MOZ001>031-035>038-043-044-053-054-171700-
...NORTHERN AND WESTERN MISSOURI...

CITY           SKY/WX    TMP DP  RH WIND       PRES   REMARKS
KANSAS CTY INT PTSUNNY   37  34  89 SW17      29.99S WCI  27
KANSAS C DTWN  CLOUDY    39  35  86 SW14      30.01S
LEE`S SUMMIT   CLOUDY    37  36  96 SW12      30.01R WCI  29
ST JOSEPH      SUNNY     40  29  64 SW14G22   29.99R
CHILLICOTHE      N/A     33  31  92 SW5       30.00S WCI  29
KIRKSVILLE     LGT SNOW  33  32  96 SW9       29.98S FOG     WCI  25

$$
MOZ066>068-077>081-088>096-101>105-171700-
...SOUTHWEST MISSOURI...

CITY           SKY/WX    TMP DP  RH WIND       PRES   REMARKS
SPRINGFIELD    CLOUDY    39  37  92 S10       30.04F
JOPLIN         CLOUDY    39  39 100 SW10      30.08R
BRANSON        CLOUDY    37  37 100 S6        30.06R FOG

$$
MOZ032>034-039>042-045>050-055>058-069>072-171700-
...CENTRAL MISSOURI...

CITY           SKY/WX    TMP DP  RH WIND       PRES   REMARKS
COLUMBIA       MIX PCPN  33  32  96 S13       30.02F FOG     WCI  24
JEFFERSON CITY CLOUDY    34  32  92 SE7       30.05S FOG     WCI  28
ROLLA          MIX PCPN  32  32 100 S8        30.04R FOG     WCI  25
SEDALIA        CLOUDY    36  36 100 S12       30.03R FOG     WCI  28
WHITEMAN AFB   LGT RAIN  35  34  94 S10       29.98R WCI  28
WARRENSBURG    DRIZZLE   36  34  93 S9        30.02S WCI  29
OSAGE BEACH    LGT RAIN  34  33  96 S10       30.05S FOG     WCI  26

$$
MOZ051-052-059>065-171700-
...EAST CENTRAL MISSOURI...

CITY           SKY/WX    TMP DP  RH WIND       PRES   REMARKS
ST LOUIS INTL  LGT SNOW  33  32  96 S9        30.07S FOG     WCI  25
SPIRIT OF STL  CLOUDY    34  33  96 S7        30.07R FOG     WCI  28
ST CHARLES     LGT SNOW  33  32  96 S6        30.07S FOG     WCI  28

$$
MOZ072>076-082>087-097>100-106>115-171700-
...SOUTH CENTRAL AND SOUTHEAST MISSOURI...

CITY           SKY/WX    TMP DP  RH WIND       PRES   REMARKS
CAPE GIRARDEAU LGT RAIN  34  33  96 E7        30.09F FOG     WCI  28
FARMINGTON     LGT RAIN  33  32  96 E6        30.05F FOG     WCI  28
POPLAR BLUFF   LGT RAIN  37  36  96 E7        30.06F FOG
WEST PLAINS    CLOUDY    36  34  92 S7        30.07R

$$


USA.gov is the U.S. government's official web portal to all federal, state and local government web resources and services.